Nogales, AZ

11:42 AM MST on January 17, 2017 (GMT -0700)
Nogales International

Weather History for KOLS - March, 2013

Change the Weather History Date:

Tuesday, March 5, 2013

  Actual Average (KFHU) Record (KFHU)
Temperature  
Mean Temperature 56 °F -  
Max Temperature 73 °F 64 °F 78 °F (2012)
Min Temperature 39 °F 41 °F 23 °F (1985)
Degree Days  
Heating Degree Days 9    
Growing Degree Days 6 (Base 50)    
Moisture  
Dew Point 23 °F    
Average Humidity 30    
Maximum Humidity 62    
Minimum Humidity 13    
Precipitation  
Precipitation 0.00 in - - ()
Sea Level Pressure  
Sea Level Pressure 30.00 in    
Wind  
Wind Speed 5 mph (SSE)    
Max Wind Speed 12 mph    
Max Gust Speed 21 mph    
Visibility 10 miles    
Events      
Averages and records for this station are not official NWS values.
T = Trace of Precipitation, MM = Missing Value Source: NWS Daily Summary

Daily Weather History Graph

Daily Weather History Graph

Search for Another Location

Airport or City:

Trip Planner

Search our weather history database for the weather conditions in past years. The results will help you decide how hot, cold, wet, or windy it might be!

Date:

Astronomy

Mar. 05, 2013 Rise Set
Actual Time 6:45 AM MST 6:24 PM MST
Civil Twilight 6:20 AM MST 6:49 PM MST
Nautical Twilight 5:52 AM MST 7:17 PM MST
Astronomical Twilight 5:24 AM MST 7:45 PM MST
Moon 1:44 AM MST (3/5) 12:23 PM MST (3/5)
Length of Visible Light 12h 28m
Length of Day
11h 39m
Last Quarter, 40% of the Moon is Illuminated
Mar 5
Last Quarter
Mar 11
New
Mar 19
First Quarter
Mar 27
Full
Apr 2
Last Quarter

Hourly Weather History & Observations

Time (MST) Temp. Windchill Dew Point Humidity Pressure Visibility Wind Dir Wind Speed Gust Speed Precip Events Conditions
12:54 AM 45.0 °F 41.8 °F 24.1 °F 44% 30.02 in 10.0 mi NNE 5.8 mph - N/A   Clear
1:54 AM 44.1 °F 41.5 °F 25.0 °F 47% 30.02 in 10.0 mi NE 4.6 mph - N/A   Clear
2:54 AM 42.1 °F 40.2 °F 26.1 °F 53% 30.01 in 10.0 mi South 3.5 mph - N/A   Clear
3:54 AM 41.0 °F 38.0 °F 26.1 °F 55% 30.01 in 10.0 mi South 4.6 mph - N/A   Clear
4:54 AM 39.9 °F 37.8 °F 27.0 °F 60% 30.02 in 10.0 mi East 3.5 mph - N/A   Clear
5:54 AM 41.0 °F - 26.6 °F 57% 30.12 in 10.0 mi Calm Calm - N/A   Clear
6:54 AM 39.0 °F - 27.0 °F 62% 30.05 in 10.0 mi Calm Calm - N/A   Clear
7:54 AM 50.0 °F - 27.0 °F 41% 30.05 in 10.0 mi Calm Calm - N/A   Clear
8:54 AM 57.9 °F - 26.1 °F 30% 30.07 in 10.0 mi Variable 3.5 mph - N/A   Clear
9:54 AM 63.0 °F - 21.9 °F 21% 30.04 in 10.0 mi Variable 3.5 mph - N/A   Clear
10:54 AM 68.0 °F - 21.9 °F 17% 30.02 in 10.0 mi South 10.4 mph - N/A   Clear
11:54 AM 70.0 °F - 18.0 °F 14% 30.02 in 10.0 mi SSE 11.5 mph - N/A   Clear
12:54 PM 72.0 °F - 21.0 °F 15% 29.99 in 10.0 mi South 11.5 mph 20.7 mph N/A   Clear
1:54 PM 73.0 °F - 19.9 °F 14% 29.96 in 10.0 mi South 5.8 mph - N/A   Clear
2:54 PM 72.0 °F - 21.0 °F 15% 29.96 in 10.0 mi SSW 10.4 mph - N/A   Clear
3:54 PM 72.0 °F - 18.0 °F 13% 29.96 in 10.0 mi South 10.4 mph - N/A   Clear
4:54 PM 70.0 °F - 18.0 °F 14% 29.96 in 10.0 mi South 9.2 mph - N/A   Clear
5:54 PM 68.0 °F - 19.9 °F 16% 29.98 in 10.0 mi SW 11.5 mph - N/A   Clear
6:54 PM 64.9 °F - 19.0 °F 17% 29.99 in 10.0 mi SE 6.9 mph - N/A   Scattered Clouds
7:54 PM 64.0 °F - 21.0 °F 19% 29.98 in 10.0 mi WSW 6.9 mph - N/A   Clear
8:54 PM 63.0 °F - 21.0 °F 20% 29.97 in 10.0 mi South 4.6 mph - N/A   Clear
9:54 PM 63.0 °F - 23.0 °F 22% 29.96 in 10.0 mi Calm Calm - N/A   Clear
10:54 PM 55.0 °F - 24.1 °F 30% 29.97 in 10.0 mi ENE 5.8 mph - N/A   Clear
11:54 PM 55.9 °F - 23.0 °F 28% 29.97 in 10.0 mi East 4.6 mph - N/A   Clear